Regional Weather Roundup
Issued by NWS Green Bay, WI

Home | Current Version | Previous Version | Graphics & Text | Print | Product List | Glossary Off
Versions: 1 2 3 4 5 6 7 8 9 10 11 12 13 14 15 16 17 18 19 20 21 22 23 24 25 26 27 28 29 30 31 32 33 34 35 36 37 38 39 40 41 42 43 44 45 46 47 48 49 50

000
ASUS43 KGRB 180411
RWRGRB

NORTH-CENTRAL AND NORTHEAST WISCONSIN REGIONAL WEATHER ROUNDUP
NATIONAL WEATHER SERVICE GREEN BAY WI
1000 PM CST FRI NOV 17 2017

WIZ005-009-010>012-018-019-180500-
NORTH CENTRAL WISCONSIN

CITY           SKY/WX    TMP DP  RH WIND       PRES   REMARKS
IRONWOOD       CLOUDY   N/A N/A N/A W7        29.64R
MANITOWISH WTR CLOUDY    32  32 100 CALM      29.60R
ARBOR VITAE    CLOUDY    34  33  96 N3        29.59R
EAGLE RIVER    CLOUDY    32  32 100 CALM      29.58S FOG
LAND O LAKES   CLOUDY    33  33 100 CALM      29.60S
RHINELANDER    CLOUDY    33  33 100 CALM      29.59F FOG
PHILLIPS       CLOUDY    32  32 100 CALM      29.61R FOG
ANTIGO         CLOUDY    32  32 100 CALM      29.58F FOG
TOMAHAWK       CLOUDY    32  31  98 CALM      29.61R FOG
MERRILL        CLOUDY    33  33 100 CALM      29.61R FOG
$$

WIZ013-073-180500-
NORTHEAST WISCONSIN

CITY           SKY/WX    TMP DP  RH WIND       PRES   REMARKS
IRON MOUNTAIN  FOG       32  30  92 CALM      29.57F VSB 1/4
MARINETTE      CLOUDY    37  37 100 CALM      29.60F FOG
OCONTO         CLOUDY    37  37 100 CALM      29.60F
$$

WIZ017-030-035>037-045-180500-
CENTRAL WISCONSIN

CITY           SKY/WX    TMP DP  RH WIND       PRES   REMARKS
MEDFORD        FOG       32  32  99 NW6       29.61R VSB 1/2
WAUSAU         CLOUDY    34  33  96 N3        29.59S FOG
MOSINEE        FOG       34  34 100 CALM      29.61S VSB 3/4
MARSHFIELD     FOG       34  33  96 NW6       29.60R VSB 1/2
WISC RAPIDS    CLOUDY    36  35  96 NW3       29.62S FOG
STEVENS POINT  CLOUDY    33  33 100 CALM      29.61R FOG
WAUPACA        CLOUDY    38  37  97 CALM      29.61S FOG
SHAWANO        CLOUDY    37  36  94 CALM      29.61F FOG
CLINTONVILLE   CLOUDY    36  36 100 NE5       29.60F FOG
WAUTOMA        CLOUDY    36  36 100 CALM      29.61S FOG
$$

WIZ038-039-048-051-180500-
FOX VALLEY

CITY           SKY/WX    TMP DP  RH WIND       PRES   REMARKS
NWS GREEN BAY  CLOUDY    38  38 100 CALM      29.60F FOG
APPLETON       LGT RAIN  37  37 100 CALM      29.58F
OSHKOSH        CLOUDY    38  37  97 CALM      29.59F FOG
FOND DU LAC    LGT RAIN  39  37  92 CALM      29.60F FOG
$$

WIZ022-050-052-180500-
EAST CENTRAL WISCONSIN

CITY           SKY/WX    TMP DP  RH WIND       PRES   REMARKS
EPHRAIM        LGT RAIN  38  37  97 W6        29.59F
WASHINGTON ISL NOT AVBL
STURGEON BAY   LGT RAIN  38  37  97 CALM      29.60F FOG
MANITOWOC      LGT RAIN  39  38  96 NW3       29.61F FOG
SHEBOYGAN      CLOUDY    40  40 100 CALM      29.60F FOG
$$

LMZ563-521-522-541>543-180500-
LAKESHORE

STATION/POSITION TIME  TEMP    WIND        PRES    VSBY  WAVE
                       AIR SEA DIR/SP/G                  HT/PER
                 (UTC) (F)     (DEG/KT/KT) (MB)    (MI)  (FT/S)
SHEBOYGAN LKSHOR 0400   41     220/  4/  5 1002.6F
NORTHPORT PIER   0340   40     260/  2/  6 1002.7F
N MID LAKE BUOY  0350   42 48  250/ 16/ 21 1003.4F         8/ 9
SISTER BAY LKSHO 0404   39     290/ 10/ 10   N/A
$$




USA.gov is the U.S. government's official web portal to all federal, state and local government web resources and services.